Terminal Aerodrome Forecast
Issued by NWS Rapid City, SD

Home | Current Version | Previous Version | Graphics & Text | Print | Product List | Glossary On
Versions: 1 2 3 4 5 6 7 8 9 10 11 12 13 14 15 16 17 18 19 20 21 22 23 24 25 26 27
000
FTUS43 KUNR 050520
TAFRAP
TAF
KRAP 050520Z 0506/0606 16007KT P6SM OVC050
     FM051300 16008KT P6SM OVC020
     FM051800 14018KT P6SM BKN040
     FM060100 12018KT P6SM -SHRA OVC025=

USA.gov is the U.S. government's official web portal to all federal, state and local government web resources and services.